Barcelona, Spain

5:54 PM CEST on August 18, 2018 (GMT +0200)
El Prat

Weather History for LEBL - February, 2018

Change the Weather History Date:

Monday, February 26, 2018

  Actual Average Record
Temperature  
Mean Temperature 46 °F -  
Max Temperature 53 °F 58 °F 68 °F (1997)
Min Temperature 39 °F 44 °F 33 °F (2001)
Degree Days  
Heating Degree Days 19    
Moisture  
Dew Point 36 °F    
Average Humidity 69    
Maximum Humidity 87    
Minimum Humidity 41    
Precipitation  
Precipitation 0.00 in 0.06 in - ()
Sea Level Pressure  
Sea Level Pressure 29.78 in    
Wind  
Wind Speed 10 mph ()    
Max Wind Speed 25 mph    
Max Gust Speed 22 mph    
Visibility 6.6 miles    
Events Rain    
Averages and records for this station are not official NWS values.
T = Trace of Precipitation, MM = Missing Value Source: Averaged Metar Reports

Daily Weather History Graph

Daily Weather History Graph

Search for Another Location

Airport or City:

Astronomy

Feb. 26, 2018 Rise Set
Actual Time 7:31 AM CET 6:38 PM CET
Civil Twilight 7:03 AM CET 7:06 PM CET
Nautical Twilight 6:31 AM CET 7:38 PM CET
Astronomical Twilight 5:59 AM CET 8:10 PM CET
Moon 2:43 PM CET (2/26) 4:45 AM CET (2/26)
Length of Visible Light 12h 03m
Length of Day
11h 07m
Waxing Gibbous, 83% of the Moon is Illuminated
Feb 26
Waxing Gibbous
Mar 2
Full
Mar 9
Last Quarter
Mar 17
New
Mar 24
First Quarter

Hourly Weather History & Observations

Time (CET) Temp. Windchill Dew Point Humidity Pressure Visibility Wind Dir Wind Speed Gust Speed Precip Events Conditions
12:00 AM 51 °F - 45 °F 73% 29.81 in 6 mi East 13.8 mph - -   Mist
12:00 AM 50.0 °F - 44.6 °F 82% 29.80 in - ENE 12.7 mph - N/A   Clear
12:30 AM 50.0 °F - 44.6 °F 82% 29.80 in - ENE 13.8 mph - N/A   Clear
1:00 AM 51 °F - 45 °F 72% 29.82 in 7 mi ENE 15.0 mph - -   Mostly Cloudy
1:00 AM 50.0 °F - 44.6 °F 82% 29.80 in 6.2 mi ENE 16.1 mph - N/A   Mostly Cloudy
1:30 AM 50.0 °F - 42.8 °F 76% 29.80 in 6.2 mi NE 10.4 mph - N/A   Scattered Clouds
2:00 AM 48 °F - 40 °F 65% 29.82 in 6 mi NNE 6.9 mph - -   Clear
2:00 AM 48.2 °F - 41.0 °F 76% 29.80 in 6.2 mi NE 6.9 mph - N/A   Partly Cloudy
2:30 AM 44.6 °F 40.7 °F 37.4 °F 76% 29.80 in 6.2 mi ENE 6.9 mph - N/A   Partly Cloudy
3:00 AM 46 °F - 39 °F 67% 29.82 in 6 mi North 6.9 mph - -  
3:00 AM 44.6 °F 41.4 °F 39.2 °F 81% 29.80 in 5.6 mi NNW 5.8 mph - N/A   Scattered Clouds
3:30 AM 44.6 °F 41.4 °F 37.4 °F 76% 29.80 in 5.6 mi NNW 5.8 mph - N/A   Partly Cloudy
4:00 AM 45 °F - 38 °F 70% 29.81 in 6 mi North 8.1 mph - -   Mist
4:00 AM 44.6 °F 41.4 °F 37.4 °F 76% 29.80 in 5.6 mi NNW 5.8 mph - N/A   Partly Cloudy
4:30 AM 42.8 °F 37.5 °F 37.4 °F 81% 29.80 in 5.6 mi NNW 9.2 mph - N/A   Partly Cloudy
5:00 AM 43 °F - 38 °F 74% 29.81 in 4 mi NNE 6.9 mph - -   Mist
5:00 AM 42.8 °F 38.0 °F 37.4 °F 81% 29.80 in 5.0 mi NNW 8.1 mph - N/A   Partly Cloudy
5:30 AM 41.0 °F 35.8 °F 37.4 °F 87% 29.80 in 5.0 mi NNW 8.1 mph - N/A   Partly Cloudy
6:00 AM 42 °F - 36 °F 70% 29.81 in 6 mi North 9.2 mph - -   Mist
6:00 AM 41.0 °F 34.7 °F 35.6 °F 81% 29.80 in 5.0 mi NNW 10.4 mph - N/A   Partly Cloudy
6:30 AM 41.0 °F 35.2 °F 33.8 °F 76% 29.80 in 5.6 mi NNW 9.2 mph - N/A   Partly Cloudy
7:00 AM 42 °F - 34 °F 64% 29.81 in 6 mi North 10.4 mph - -   Mist
7:00 AM 41.0 °F 34.3 °F 33.8 °F 76% 29.80 in 5.6 mi NNW 11.5 mph - N/A   Partly Cloudy
7:30 AM 41.0 °F 34.7 °F 33.8 °F 76% 29.80 in 5.6 mi NNW 10.4 mph - N/A   Mostly Cloudy
8:00 AM 42 °F - 35 °F 68% 29.81 in 5 mi North 8.1 mph - -   Mist
8:00 AM 41.0 °F 35.8 °F 33.8 °F 76% 29.80 in 5.6 mi NNW 8.1 mph - N/A   Mostly Cloudy
8:30 AM 41.0 °F 35.8 °F 35.6 °F 81% 29.80 in 5.6 mi NNW 8.1 mph - N/A   Mostly Cloudy
9:00 AM 43 °F - 36 °F 67% 29.81 in 6 mi North 6.9 mph - -   Mist
9:00 AM 42.8 °F 38.0 °F 35.6 °F 76% 29.80 in 5.6 mi NNW 8.1 mph 21.9 mph N/A   Mostly Cloudy
9:30 AM 44.6 °F 40.7 °F 35.6 °F 71% 29.80 in 5.0 mi NNW 6.9 mph - N/A   Mostly Cloudy
10:00 AM 45 °F - 36 °F 63% 29.82 in 5 mi North 6.9 mph - -   Mist
10:00 AM 44.6 °F 40.7 °F 35.6 °F 71% 29.80 in 5.0 mi NNW 6.9 mph - N/A   Mostly Cloudy
10:30 AM 46.4 °F 42.9 °F 35.6 °F 66% 29.80 in 5.0 mi NW 6.9 mph - N/A   Mostly Cloudy
11:00 AM 49 °F - 38 °F 55% 29.81 in 4 mi North 2.3 mph - -   Mist
11:00 AM 48.2 °F - 37.4 °F 66% 29.80 in 5.0 mi NW 4.6 mph - N/A   Mostly Cloudy
11:30 AM 50.0 °F - 37.4 °F 62% 29.80 in 6.2 mi East 6.9 mph - N/A   Mostly Cloudy
12:00 PM 52 °F - 35 °F 41% 29.80 in 11 mi ESE 9.2 mph - -   Clear
12:00 PM 51.8 °F - 35.6 °F 54% 29.80 in 6.2 mi East 6.9 mph - N/A   Mostly Cloudy
12:30 PM 50.0 °F - 33.8 °F 54% 29.77 in 6.2 mi ESE 8.1 mph - N/A   Mostly Cloudy
1:00 PM 52 °F - 37 °F 46% 29.77 in 11 mi ESE 11.5 mph - -   Mostly Cloudy
1:00 PM 50.0 °F - 35.6 °F 58% 29.77 in 6.2 mi ESE 10.4 mph - N/A   Mostly Cloudy
1:30 PM 50.0 °F - 37.4 °F 62% 29.74 in 6.2 mi ESE 12.7 mph - N/A   Mostly Cloudy
2:00 PM 50.0 °F - 37.4 °F 62% 29.74 in 6.2 mi SE 11.5 mph - N/A   Mostly Cloudy
2:30 PM 50.0 °F - 37.4 °F 62% 29.74 in 6.2 mi SE 9.2 mph - N/A   Mostly Cloudy
3:00 PM 50 °F - 36 °F 49% 29.74 in 10 mi SSE 10.4 mph - -  
3:00 PM 50.0 °F - 35.6 °F 58% 29.74 in 6.2 mi SSE 10.4 mph - N/A   Mostly Cloudy
3:30 PM 50.0 °F - 35.6 °F 58% 29.74 in 6.2 mi SSE 9.2 mph - N/A   Mostly Cloudy
4:00 PM 50 °F - 36 °F 48% 29.74 in 16 mi SSE 9.2 mph - -   Mostly Cloudy
4:00 PM 48.2 °F - 35.6 °F 62% 29.71 in 6.2 mi SE 6.9 mph - N/A   Mostly Cloudy
4:30 PM 48.2 °F - 35.6 °F 62% 29.71 in 6.2 mi SSE 8.1 mph - N/A   Mostly Cloudy
5:00 PM 49 °F - 36 °F 49% 29.72 in 11 mi SE 8.1 mph - -  
5:00 PM 48.2 °F - 35.6 °F 62% 29.71 in 6.2 mi SE 6.9 mph - N/A   Mostly Cloudy
5:30 PM 48.2 °F - 35.6 °F 62% 29.71 in 6.2 mi ESE 8.1 mph - N/A   Mostly Cloudy
6:00 PM 49 °F - 35 °F 48% 29.73 in 13 mi SE 10.4 mph - -  
6:00 PM 48.2 °F - 35.6 °F 62% 29.71 in 6.2 mi ESE 9.2 mph - N/A   Mostly Cloudy
6:30 PM 44.6 °F 36.1 °F 37.4 °F 76% 29.74 in 6.2 mi ENE 21.9 mph - N/A   Mostly Cloudy
7:00 PM 43 °F - 39 °F 80% 29.76 in 5 mi East 23.0 mph - - Rain Light Rain
7:00 PM 42.8 °F 34.5 °F 37.4 °F 81% 29.74 in 5.0 mi ENE 18.4 mph - N/A Rain Light Rain
7:30 PM 42.8 °F 34.5 °F 37.4 °F 81% 29.74 in 5.0 mi ENE 18.4 mph - N/A Rain Light Rain
8:00 PM 41.0 °F 32.2 °F 37.4 °F 87% 29.74 in 5.0 mi ENE 18.4 mph - N/A   Light Drizzle
8:30 PM 41.0 °F 31.1 °F 33.8 °F 76% 29.77 in 6.2 mi ENE 23.0 mph - N/A   Light Drizzle
9:00 PM 40 °F - 35 °F 75% 29.79 in 12 mi ENE 21.9 mph - - Rain Light Drizzle
9:00 PM 39.2 °F 29.3 °F 35.6 °F 87% 29.77 in 6.2 mi ENE 20.7 mph - N/A   Light Drizzle
9:30 PM 39.2 °F 29.0 °F 33.8 °F 81% 29.77 in 6.2 mi ENE 21.9 mph - N/A   Light Drizzle
10:00 PM 40 °F - 33 °F 67% 29.79 in 12 mi East 25.3 mph - - Rain Light Drizzle
10:00 PM 39.2 °F 29.6 °F 32.0 °F 75% 29.77 in 6.2 mi ENE 19.6 mph - N/A   Mostly Cloudy
10:30 PM 39.2 °F 28.7 °F 30.2 °F 70% 29.80 in 6.2 mi ENE 23.0 mph - N/A   Mostly Cloudy
11:00 PM 40 °F - 28 °F 51% 29.81 in 17 mi ENE 23.0 mph - -  
11:00 PM 39.2 °F 28.3 °F 28.4 °F 65% 29.80 in 6.2 mi ENE 25.3 mph - N/A   Mostly Cloudy
11:30 PM 39.2 °F 28.7 °F 28.4 °F 65% 29.80 in 6.2 mi NE 23.0 mph - N/A   Mostly Cloudy